Hourly Weather Rudna

Today, 18 April, Sunday

Time Temperature Precipitation Wind Pressure Humidity
00:00 +7°C° 0 mm 1 mps 760 mmHg 93%
01:00 +7°C° 0 mm 1 mps 760 mmHg 93%
02:00 +7°C° 0 mm 1 mps 760 mmHg 94%
03:00 +7°C° 0 mm 1 mps 760 mmHg 94%
04:00 +7°C° 0 mm 1 mps 760 mmHg 94%
05:00 +7°C° 0.1 mm 2 mps 760 mmHg 93%
06:00 +7°C° 0.1 mm 2 mps 760 mmHg 91%
07:00 +8°C° 0.1 mm 2 mps 760 mmHg 90%
08:00 +9°C° 0.1 mm 2 mps 760 mmHg 85%
09:00 +10°C° 0.1 mm 3 mps 760 mmHg 80%
10:00 +11°C° 0.1 mm 3 mps 760 mmHg 75%
11:00 +12°C° 0.7 mm 3 mps 760 mmHg 69%
12:00 +13°C° 0.7 mm 4 mps 759 mmHg 62%
13:00 +14°C° 0.7 mm 4 mps 759 mmHg 56%
14:00 +14°C° 0.2 mm 4 mps 759 mmHg 56%
15:00 +14°C° 0.2 mm 3 mps 759 mmHg 57%
16:00 +14°C° 0.2 mm 3 mps 759 mmHg 57%
17:00 +12°C° 0.1 mm 3 mps 759 mmHg 65%
18:00 +12°C° 0.1 mm 2 mps 760 mmHg 73%
19:00 +9°C° 0.1 mm 2 mps 760 mmHg 82%
20:00 +9°C° 0 mm 2 mps 760 mmHg 84%
21:00 +8°C° 0 mm 2 mps 761 mmHg 86%
22:00 +7°C° 0 mm 2 mps 761 mmHg 89%
23:00 +8°C° 0 mm 1 mps 761 mmHg 89%

Tomorrow, 19 April, Monday

Time Temperature Precipitation Wind Pressure Humidity
00:00 +8°C° 0 mm 1 mps 761 mmHg 90%
01:00 +7°C° 0 mm 1 mps 761 mmHg 91%
02:00 +8°C° 0 mm 1 mps 761 mmHg 89%
03:00 +8°C° 0 mm 1 mps 761 mmHg 88%
04:00 +8°C° 0 mm 1 mps 761 mmHg 86%
05:00 +8°C° 0 mm 1 mps 761 mmHg 84%
06:00 +9°C° 0 mm 1 mps 761 mmHg 81%
07:00 +10°C° 0 mm 1 mps 761 mmHg 79%
08:00 +10°C° 0 mm 2 mps 761 mmHg 75%
09:00 +12°C° 0 mm 2 mps 761 mmHg 71%
10:00 +12°C° 0 mm 3 mps 761 mmHg 67%
11:00 +13°C° 0 mm 3 mps 760 mmHg 64%
12:00 +14°C° 0 mm 3 mps 760 mmHg 62%
13:00 +16°C° 0 mm 3 mps 760 mmHg 60%
14:00 +16°C° 0.5 mm 3 mps 759 mmHg 61%
15:00 +16°C° 0.5 mm 3 mps 759 mmHg 62%
16:00 +16°C° 0.5 mm 3 mps 758 mmHg 64%
17:00 +14°C° 0.7 mm 3 mps 758 mmHg 70%
18:00 +13°C° 0.7 mm 3 mps 758 mmHg 76%
19:00 +12°C° 0.7 mm 2 mps 758 mmHg 82%
20:00 +12°C° 0.1 mm 2 mps 758 mmHg 84%
21:00 +10°C° 0.1 mm 2 mps 758 mmHg 85%
22:00 +10°C° 0.1 mm 2 mps 758 mmHg 86%
23:00 +10°C° 0 mm 2 mps 758 mmHg 85%

Day after tomorrow, 20 April, Tuesday

Time Temperature Precipitation Wind Pressure Humidity
00:00 +10°C° 0 mm 2 mps 758 mmHg 84%
01:00 +9°C° 0 mm 2 mps 758 mmHg 84%
02:00 +9°C° 0 mm 2 mps 758 mmHg 85%
03:00 +8°C° 0 mm 2 mps 758 mmHg 86%
04:00 +8°C° 0 mm 2 mps 758 mmHg 87%
05:00 +8°C° 0 mm 2 mps 758 mmHg 85%
06:00 +9°C° 0 mm 2 mps 758 mmHg 82%
07:00 +9°C° 0 mm 2 mps 758 mmHg 80%
08:00 +12°C° 0.1 mm 2 mps 758 mmHg 72%
09:00 +13°C° 0.1 mm 2 mps 758 mmHg 65%
10:00 +14°C° 0.1 mm 3 mps 758 mmHg 57%
11:00 +15°C° 0.1 mm 2 mps 757 mmHg 53%
12:00 +15°C° 0.1 mm 2 mps 757 mmHg 49%
13:00 +16°C° 0.1 mm 2 mps 757 mmHg 46%
14:00 +16°C° 0 mm 2 mps 757 mmHg 46%
15:00 +16°C° 0 mm 2 mps 757 mmHg 47%
16:00 +15°C° 0 mm 2 mps 756 mmHg 48%
17:00 +14°C° 0 mm 2 mps 756 mmHg 53%
18:00 +13°C° 0 mm 2 mps 756 mmHg 59%
19:00 +12°C° 0 mm 2 mps 756 mmHg 65%
20:00 +10°C° 0 mm 2 mps 756 mmHg 67%
21:00 +10°C° 0 mm 2 mps 756 mmHg 69%
22:00 +9°C° 0 mm 2 mps 757 mmHg 71%
23:00 +10°C° 0 mm 1 mps 756 mmHg 72%

21 April, Wednesday

Time Temperature Precipitation Wind Pressure Humidity
00:00 +10°C° 0 mm 1 mps 756 mmHg 73%
01:00 +10°C° 0 mm 1 mps 756 mmHg 73%
02:00 +10°C° 0.1 mm 1 mps 756 mmHg 76%
03:00 +10°C° 0.1 mm 1 mps 756 mmHg 79%
04:00 +9°C° 0.1 mm 1 mps 755 mmHg 82%
05:00 +9°C° 0.2 mm 1 mps 755 mmHg 83%
06:00 +10°C° 0.2 mm 1 mps 755 mmHg 84%
07:00 +10°C° 0.2 mm 1 mps 755 mmHg 85%
08:00 +9°C° 0.2 mm 2 mps 755 mmHg 82%
09:00 +10°C° 0.2 mm 2 mps 755 mmHg 78%
10:00 +12°C° 0.2 mm 2 mps 755 mmHg 75%
11:00 +13°C° 0.3 mm 2 mps 755 mmHg 69%
12:00 +13°C° 0.3 mm 3 mps 755 mmHg 64%
13:00 +14°C° 0.3 mm 3 mps 754 mmHg 58%
14:00 +14°C° 0.1 mm 4 mps 754 mmHg 55%
15:00 +14°C° 0.1 mm 4 mps 754 mmHg 53%
16:00 +14°C° 0.1 mm 4 mps 754 mmHg 50%
17:00 +12°C° 0.1 mm 4 mps 754 mmHg 61%
18:00 +10°C° 0.1 mm 4 mps 755 mmHg 72%
19:00 +7°C° 0.1 mm 4 mps 755 mmHg 83%
20:00 +7°C° 0 mm 3 mps 755 mmHg 81%
21:00 +7°C° 0 mm 3 mps 756 mmHg 80%
22:00 +6°C° 0 mm 2 mps 756 mmHg 78%
23:00 +4°C° 0 mm 3 mps 756 mmHg 77%

22 April, Thursday

Time Temperature Precipitation Wind Pressure Humidity
00:00 +4°C° 0 mm 3 mps 756 mmHg 77%
01:00 +3°C° 0 mm 4 mps 756 mmHg 76%
02:00 +1°C° 0 mm 4 mps 756 mmHg 78%
03:00 +1°C° 0 mm 4 mps 756 mmHg 80%
04:00 0°C° 0 mm 4 mps 756 mmHg 82%
05:00 0°C° 0 mm 5 mps 756 mmHg 80%
06:00 +1°C° 0 mm 5 mps 756 mmHg 79%
07:00 +1°C° 0 mm 6 mps 757 mmHg 77%
08:00 +2°C° 0.1 mm 6 mps 757 mmHg 80%
09:00 +2°C° 0.1 mm 6 mps 757 mmHg 83%
10:00 +3°C° 0.1 mm 6 mps 757 mmHg 85%
11:00 +3°C° 0.3 mm 6 mps 757 mmHg 83%
12:00 +4°C° 0.3 mm 6 mps 757 mmHg 81%
13:00 +5°C° 0.3 mm 7 mps 757 mmHg 79%
14:00 +4°C° 0.4 mm 7 mps 758 mmHg 81%
15:00 +4°C° 0.4 mm 6 mps 758 mmHg 83%
16:00 +4°C° 0.4 mm 6 mps 759 mmHg 85%
17:00 +3°C° 0 mm 6 mps 759 mmHg 86%
18:00 +3°C° 0 mm 5 mps 759 mmHg 87%
19:00 +3°C° 0 mm 5 mps 760 mmHg 87%
20:00 +3°C° 0 mm 4 mps 760 mmHg 89%
21:00 +3°C° 0 mm 4 mps 761 mmHg 91%
22:00 +1°C° 0 mm 4 mps 761 mmHg 93%
23:00 +1°C° 0 mm 4 mps 762 mmHg 92%

23 April, Friday

Time Temperature Precipitation Wind Pressure Humidity
00:00 +3°C° 0 mm 4 mps 762 mmHg 91%
01:00 +3°C° 0 mm 4 mps 763 mmHg 90%
02:00 +2°C° 0 mm 3 mps 763 mmHg 92%
03:00 +2°C° 0 mm 3 mps 763 mmHg 93%
04:00 +1°C° 0 mm 3 mps 764 mmHg 94%
05:00 +2°C° 0 mm 3 mps 764 mmHg 91%
06:00 +2°C° 0 mm 3 mps 765 mmHg 88%
07:00 +3°C° 0 mm 3 mps 766 mmHg 85%
08:00 +4°C° 0 mm 3 mps 766 mmHg 75%
09:00 +7°C° 0 mm 3 mps 766 mmHg 66%
10:00 +7°C° 0 mm 4 mps 767 mmHg 56%
11:00 +8°C° 0 mm 4 mps 767 mmHg 49%
12:00 +11°C° 0 mm 4 mps 767 mmHg 42%
13:00 +12°C° 0 mm 4 mps 767 mmHg 34%
14:00 +12°C° 0 mm 4 mps 767 mmHg 34%
15:00 +12°C° 0 mm 4 mps 767 mmHg 34%
16:00 +12°C° 0 mm 3 mps 767 mmHg 34%
17:00 +11°C° 0 mm 3 mps 767 mmHg 42%
18:00 +9°C° 0 mm 3 mps 768 mmHg 50%
19:00 +8°C° 0 mm 2 mps 768 mmHg 57%
20:00 +7°C° 0 mm 2 mps 768 mmHg 60%
21:00 +6°C° 0 mm 2 mps 768 mmHg 62%
22:00 +5°C° 0 mm 2 mps 769 mmHg 65%
23:00 +4°C° 0 mm 2 mps 769 mmHg 66%
Show more